Météo par heure à Juncewo

Ce jour, 20 Juin, Dimanche

Heure Température Précipitation Vent Pression Humidité
00:00 +21°C° 0.1 mm 2 m/s 754 mmHg 82%
01:00 +23°C° 0 mm 2 m/s 753 mmHg 74%
02:00 +23°C° 0 mm 2 m/s 753 mmHg 74%
03:00 +21°C° 0 mm 2 m/s 752 mmHg 75%
04:00 +21°C° 0 mm 3 m/s 752 mmHg 76%
05:00 +24°C° 0 mm 3 m/s 752 mmHg 73%
06:00 +25°C° 0 mm 4 m/s 752 mmHg 70%
07:00 +27°C° 0 mm 4 m/s 752 mmHg 67%
08:00 +29°C° 0 mm 4 m/s 752 mmHg 60%
09:00 +32°C° 0 mm 5 m/s 752 mmHg 53%
10:00 +34°C° 0 mm 5 m/s 752 mmHg 46%
11:00 +35°C° 0 mm 5 m/s 751 mmHg 42%
12:00 +35°C° 0 mm 5 m/s 751 mmHg 39%
13:00 +36°C° 0 mm 5 m/s 751 mmHg 35%
14:00 +36°C° 0 mm 5 m/s 751 mmHg 38%
15:00 +35°C° 0 mm 5 m/s 750 mmHg 42%
16:00 +35°C° 0 mm 5 m/s 750 mmHg 45%
17:00 +33°C° 0.1 mm 4 m/s 750 mmHg 52%
18:00 +31°C° 0.1 mm 3 m/s 750 mmHg 58%
19:00 +29°C° 0.1 mm 2 m/s 750 mmHg 65%
20:00 +27°C° 0.1 mm 2 m/s 750 mmHg 71%
21:00 +26°C° 0.1 mm 3 m/s 751 mmHg 76%
22:00 +24°C° 0.1 mm 3 m/s 751 mmHg 82%
23:00 +22°C° 0 mm 3 m/s 750 mmHg 85%

Demain, 21 Juin, Lundi

Heure Température Précipitation Vent Pression Humidité
00:00 +21°C° 0 mm 3 m/s 750 mmHg 89%
01:00 +21°C° 0 mm 3 m/s 750 mmHg 92%
02:00 +20°C° 0.1 mm 3 m/s 750 mmHg 92%
03:00 +20°C° 0.1 mm 3 m/s 749 mmHg 91%
04:00 +20°C° 0.1 mm 3 m/s 749 mmHg 91%
05:00 +21°C° 0.3 mm 3 m/s 749 mmHg 85%
06:00 +22°C° 0.3 mm 3 m/s 749 mmHg 80%
07:00 +25°C° 0.3 mm 3 m/s 750 mmHg 75%
08:00 +27°C° 0 mm 4 m/s 749 mmHg 67%
09:00 +29°C° 0 mm 4 m/s 749 mmHg 58%
10:00 +32°C° 0 mm 4 m/s 749 mmHg 50%
11:00 +32°C° 0 mm 4 m/s 749 mmHg 51%
12:00 +32°C° 0 mm 4 m/s 749 mmHg 53%
13:00 +32°C° 0 mm 5 m/s 749 mmHg 54%
14:00 +30°C° 0.3 mm 4 m/s 749 mmHg 58%
15:00 +29°C° 0.3 mm 3 m/s 749 mmHg 63%
16:00 +28°C° 0.3 mm 3 m/s 749 mmHg 67%
17:00 +26°C° 1.1 mm 3 m/s 749 mmHg 73%
18:00 +24°C° 1.1 mm 2 m/s 750 mmHg 80%
19:00 +21°C° 1.1 mm 2 m/s 750 mmHg 86%
20:00 +21°C° 0.1 mm 2 m/s 751 mmHg 88%
21:00 +20°C° 0.1 mm 2 m/s 751 mmHg 91%
22:00 +20°C° 0.1 mm 2 m/s 751 mmHg 93%
23:00 +19°C° 0 mm 2 m/s 751 mmHg 95%

Après-demain, 22 Juin, Mardi

Heure Température Précipitation Vent Pression Humidité
00:00 +18°C° 0 mm 2 m/s 751 mmHg 96%
01:00 +18°C° 0 mm 2 m/s 752 mmHg 97%
02:00 +17°C° 0 mm 2 m/s 752 mmHg 97%
03:00 +17°C° 0 mm 2 m/s 752 mmHg 97%
04:00 +16°C° 0 mm 2 m/s 752 mmHg 97%
05:00 +17°C° 0 mm 2 m/s 753 mmHg 91%
06:00 +18°C° 0 mm 2 m/s 753 mmHg 86%
07:00 +19°C° 0 mm 2 m/s 754 mmHg 81%
08:00 +20°C° 0 mm 2 m/s 754 mmHg 75%
09:00 +23°C° 0 mm 2 m/s 754 mmHg 69%
10:00 +24°C° 0 mm 2 m/s 754 mmHg 63%
11:00 +25°C° 0 mm 2 m/s 754 mmHg 61%
12:00 +26°C° 0 mm 2 m/s 754 mmHg 58%
13:00 +26°C° 0 mm 2 m/s 754 mmHg 55%
14:00 +27°C° 0 mm 2 m/s 754 mmHg 54%
15:00 +27°C° 0 mm 2 m/s 754 mmHg 52%
16:00 +28°C° 0 mm 2 m/s 754 mmHg 51%
17:00 +26°C° 0 mm 3 m/s 754 mmHg 57%
18:00 +25°C° 0 mm 3 m/s 754 mmHg 62%
19:00 +24°C° 0 mm 3 m/s 754 mmHg 68%
20:00 +21°C° 0 mm 4 m/s 754 mmHg 71%
21:00 +20°C° 0 mm 4 m/s 754 mmHg 74%
22:00 +19°C° 0 mm 5 m/s 754 mmHg 77%
23:00 +17°C° 0 mm 5 m/s 755 mmHg 78%

23 Juin, Mercredi

Heure Température Précipitation Vent Pression Humidité
00:00 +16°C° 0 mm 5 m/s 755 mmHg 79%
01:00 +15°C° 0 mm 5 m/s 755 mmHg 80%
02:00 +15°C° 0.1 mm 4 m/s 755 mmHg 81%
03:00 +14°C° 0.1 mm 4 m/s 755 mmHg 82%
04:00 +14°C° 0.1 mm 4 m/s 754 mmHg 84%
05:00 +14°C° 2 mm 3 m/s 755 mmHg 87%
06:00 +14°C° 2 mm 3 m/s 755 mmHg 90%
07:00 +14°C° 2 mm 3 m/s 755 mmHg 93%
08:00 +16°C° 1.2 mm 3 m/s 755 mmHg 93%
09:00 +15°C° 1.2 mm 4 m/s 756 mmHg 93%
10:00 +15°C° 1.2 mm 5 m/s 756 mmHg 92%
11:00 +15°C° 0.4 mm 5 m/s 756 mmHg 92%
12:00 +15°C° 0.4 mm 5 m/s 757 mmHg 91%
13:00 +15°C° 0.4 mm 4 m/s 757 mmHg 91%
14:00 +15°C° 0 mm 4 m/s 758 mmHg 88%
15:00 +17°C° 0 mm 4 m/s 758 mmHg 85%
16:00 +17°C° 0 mm 4 m/s 758 mmHg 83%
17:00 +17°C° 0 mm 4 m/s 758 mmHg 81%
18:00 +17°C° 0 mm 3 m/s 758 mmHg 80%
19:00 +17°C° 0 mm 3 m/s 758 mmHg 79%
20:00 +17°C° 0 mm 2 m/s 758 mmHg 81%
21:00 +16°C° 0 mm 2 m/s 759 mmHg 83%
22:00 +15°C° 0 mm 2 m/s 759 mmHg 86%
23:00 +15°C° 0 mm 2 m/s 759 mmHg 87%

24 Juin, Jeudi

Heure Température Précipitation Vent Pression Humidité
00:00 +15°C° 0 mm 2 m/s 759 mmHg 89%
01:00 +14°C° 0 mm 2 m/s 759 mmHg 91%
02:00 +14°C° 0 mm 2 m/s 759 mmHg 93%
03:00 +13°C° 0 mm 2 m/s 759 mmHg 94%
04:00 +13°C° 0 mm 2 m/s 759 mmHg 96%
05:00 +14°C° 0 mm 2 m/s 759 mmHg 91%
06:00 +15°C° 0 mm 2 m/s 759 mmHg 87%
07:00 +17°C° 0 mm 2 m/s 759 mmHg 82%
08:00 +17°C° 0.2 mm 2 m/s 759 mmHg 80%
09:00 +18°C° 0.2 mm 2 m/s 759 mmHg 79%
10:00 +19°C° 0.2 mm 1 m/s 759 mmHg 77%
11:00 +18°C° 0.3 mm 2 m/s 759 mmHg 80%
12:00 +18°C° 0.3 mm 2 m/s 759 mmHg 83%
13:00 +18°C° 0.3 mm 2 m/s 759 mmHg 86%
14:00 +18°C° 0.1 mm 2 m/s 759 mmHg 87%
15:00 +17°C° 0.1 mm 2 m/s 759 mmHg 88%
16:00 +17°C° 0.1 mm 2 m/s 759 mmHg 90%
17:00 +17°C° 0 mm 2 m/s 759 mmHg 91%
18:00 +16°C° 0 mm 2 m/s 759 mmHg 93%
19:00 +16°C° 0 mm 2 m/s 759 mmHg 95%
20:00 +16°C° 0 mm 2 m/s 759 mmHg 95%
21:00 +16°C° 0 mm 2 m/s 759 mmHg 96%
22:00 +15°C° 0 mm 2 m/s 759 mmHg 96%
23:00 +15°C° 0.2 mm 1 m/s 759 mmHg 96%

25 Juin, Vendredi

Heure Température Précipitation Vent Pression Humidité
00:00 +15°C° 0.2 mm 1 m/s 758 mmHg 97%
01:00 +15°C° 0.2 mm 1 m/s 758 mmHg 97%
02:00 +15°C° 0 mm 1 m/s 758 mmHg 97%
03:00 +15°C° 0 mm 1 m/s 758 mmHg 97%
04:00 +15°C° 0 mm 2 m/s 758 mmHg 97%
05:00 +16°C° 0 mm 2 m/s 759 mmHg 93%
06:00 +16°C° 0 mm 2 m/s 759 mmHg 89%
07:00 +17°C° 0 mm 2 m/s 759 mmHg 86%
08:00 +18°C° 0 mm 3 m/s 759 mmHg 78%
09:00 +20°C° 0 mm 3 m/s 759 mmHg 70%
10:00 +21°C° 0 mm 3 m/s 759 mmHg 62%
11:00 +21°C° 0 mm 3 m/s 759 mmHg 60%
12:00 +22°C° 0 mm 3 m/s 758 mmHg 57%
13:00 +22°C° 0 mm 3 m/s 758 mmHg 55%
14:00 +22°C° 0 mm 3 m/s 758 mmHg 57%
15:00 +22°C° 0 mm 3 m/s 758 mmHg 59%
16:00 +21°C° 0 mm 3 m/s 758 mmHg 61%
17:00 +21°C° 0 mm 3 m/s 758 mmHg 65%
18:00 +20°C° 0 mm 2 m/s 758 mmHg 68%
19:00 +20°C° 0 mm 2 m/s 758 mmHg 71%
20:00 +18°C° 0 mm 2 m/s 758 mmHg 76%
21:00 +17°C° 0 mm 2 m/s 758 mmHg 81%
22:00 +15°C° 0 mm 1 m/s 758 mmHg 86%
23:00 +15°C° 0 mm 1 m/s 758 mmHg 87%
Voir plus

Nous avons besoin de votre consentement

Meteoprog et ses fournisseurs de services peuvent stocker et accéder à des données personnelles telles que des cookies, des identifiants d'appareils ou d'autres technologies similaires sur votre appareil et traiter ces données pour personnaliser le contenu et les publicités, ainsi que pour fournir des fonctionnalités de médias sociaux et analyser le trafic.

  • Stocker et/ou accéder à des informations sur votre appareil

    Des cookies, des identifiants d'appareils ou d'autres informations peuvent être stockés ou accessibles sur votre appareil aux fins indiquées ci-dessus.

  • Annonces et contenus personnalisés, mesure des annonces et des contenus, connaissance de l'audience et développement de produits

    Les annonces et le contenu peuvent être personnalisés en fonction d'un profil. D'autres données peuvent être ajoutées pour mieux personnaliser les annonces et le contenu. Les performances des publicités et du contenu peuvent être mesurées. Il est possible d'obtenir des informations sur le public qui a vu les publicités et le contenu. Ces données peuvent être utilisées pour développer ou améliorer l'expérience de l'utilisateur, les systèmes et les logiciels.

En cliquant sur "J'accepte", vous autorisez l'utilisation de cookies, des identifiants d'appareils, des balises web ou d'autres technologies similaires. Vos paramètres peuvent être modifiés dans le navigateur de votre appareil.

Dans certains cas, des intérêts légitimes peuvent être invoqués plutôt qu'un consentement. Vous pouvez en savoir plus à ce sujet dans notre Politique de confidentialité et de cookies.